Flag for U.S.A. Weather past 2 weeks in Bakersfield, California, U.S.A.

Now
79 °F

Sunny.


Feels Like: 79 °F
Forecast: 70 / 90 °F
Wind: 10 mph from Northwest

Location: Meadows Field

Current Time: Aug 30, 2015 at 11:19:04 AM

Latest Report: Aug 30, 2015 at 10:54 AM


Visibility: 10 mi

Pressure: 29.98 "Hg

Humidity: 35%

Dew point: 49 °F

Location of BakersfieldLocation

Historic Weather in Bakersfield — Graph

°F

Bakersfield temperature yesterday

Maximum temperature yesterday: 97 °F (at 4:54 PM)
Minimum temperature yesterday: 74 °F (at 4:54 AM)
Average temperature yesterday: 85 °F

Past Weeks' High & Low Weather Summary

 TemperatureHumidityPressure
High109 °F (Aug 17, 3:54 PM)61% (Aug 24, 6:54 AM)30.03 "Hg (Aug 24, 6:54 AM)
Low68 °F (Aug 21, 5:54 AM)7% (Aug 18, 10:54 AM)29.70 "Hg (Aug 17, 5:54 PM)
Average86 °F28%29.85 "Hg
* Reported Aug 15 9:54 AM — Aug 30 9:54 AM, Bakersfield, Weather by CustomWeather, © 2015

Note: Actual official high and low records may vary slightly from our data, if they occured in-between our weather recording intervals... More about our weather records

Advertising

Bakersfield weather history for previous 24 hours

 ConditionsComfort  
Time TempWeatherWind HumidityBarometerVisibility
9:54 AM
Sun, Aug 30
76 °FSunny.9 mph36%29.99 "Hg10 mi
8:54 AM74 °FSunny.8 mph37%29.99 "Hg10 mi
7:54 AM71 °FSunny.8 mph42%29.98 "Hg10 mi
6:54 AM69 °FClear.6 mph49%29.97 "Hg10 mi
5:54 AM70 °FClear.8 mph49%29.94 "Hg10 mi
4:54 AM71 °FClear.5 mph51%29.94 "Hg10 mi
3:54 AM72 °FClear.7 mph53%29.93 "Hg10 mi
2:54 AM75 °FClear.10 mph52%29.92 "Hg10 mi
1:54 AM76 °FClear.13 mph60%29.90 "Hg10 mi
12:54 AM78 °FClear.13 mph54%29.89 "Hg10 mi
11:54 PM
Sat, Aug 29
82 °FClear.12 mph43%29.88 "Hg10 mi
10:54 PM84 °FClear.9 mph37%29.86 "Hg10 mi
9:54 PM86 °FClear.12 mph31%29.85 "Hg10 mi
8:54 PM88 °FClear.6 mph27%29.84 "Hg10 mi
7:54 PM90 °FSunny.6 mph26%29.82 "Hg10 mi
6:54 PM93 °FSunny.8 mph23%29.82 "Hg10 mi
5:54 PM96 °FSunny.9 mph20%29.82 "Hg10 mi
4:54 PM97 °FSunny.14 mph19%29.83 "Hg10 mi
3:54 PM96 °FSunny.13 mph19%29.84 "Hg10 mi
2:54 PM94 °FSunny.10 mph21%29.87 "Hg10 mi
1:54 PM91 °FSunny.7 mph24%29.90 "Hg10 mi
12:54 PM91 °FSunny.9 mph25%29.92 "Hg10 mi
11:54 AM88 °FSunny.7 mph29%29.94 "Hg10 mi
Weather by CustomWeather, © 2015

See weather overviewHow to use our weather pages